Other Public Products
Issued by NWS Grand Forks, ND

Home | Current Version | Previous Version | Text Only | Print | Product List | Glossary Off
Versions: 1 2 3 4 5 6 7 8 9 10 11 12 13 14 15 16 17 18 19 20 21 22 23 24 25 26 27 28 29 30 31 32 33 34 35 36 37 38 39 40 41 42 43 44 45 46 47 48 49 50

000
FPUS83 KFGF 301231
OPUFGF
PRAIRIE TO PINES WEATHER ROUNDUP
NATIONAL WEATHER SERVICE EASTERN NORTH DAKOTA/GRAND FORKS ND
700 AM CDT SUN AUG 30 2015

 **SATELLITE DATA USED TO AUGMENT SKY COVER AT AUTOMATED STATIONS**
 *****  WEATHER ACROSS EASTERN NORTH DAKOTA  *****

CITY           SKY/WX    TMP DP  RH WIND       PRES   REMARKS
GRAND FORKS    MOCLDY    64  63  94 S14       29.78R
6HR MIN TEMP:  65; 6HR MAX TEMP:  69;

GRAND FORKS AF PTCLDY    64  64  99 S10       29.78R
GRAND CITY NWS   N/A     63 N/A N/A S9          N/A
BUXTON         NOT AVBL
DEVILS LAKE    PTCLDY    66  61  82 SE8       29.74S
6HR MIN TEMP:  66; 6HR MAX TEMP:  73;

FARGO          CLEAR     65  61  87 S13       29.83S
6HR MIN TEMP:  65; 6HR MAX TEMP:  69;

WAHPETON ARPT  SUNNY     61  57  88 SE10      29.87S
$$

 *****  WEATHER ACROSS CENTRAL AND WESTERN NORTH DAKOTA  *****

CITY           SKY/WX    TMP DP  RH WIND       PRES   REMARKS
JAMESTOWN      CLOUDY    64  63  96 S10       29.79S FOG
6HR MIN TEMP:  64; 6HR MAX TEMP:  70;

BISMARCK       MOCLDY    63  60  90 SE7       29.75S
6HR MIN TEMP:  62; 6HR MAX TEMP:  70;

MINOT          MOCLDY    66  57  72 SE3       29.67F
6HR MIN TEMP:  65; 6HR MAX TEMP:  81;

MINOT AFB      MOCLDY    60  58  92 E1        29.67S
6HR MIN TEMP:  60; 6HR MAX TEMP:  69;

GARRISON         N/A     62  58  86 SE7       29.71F
6HR MIN TEMP:  60; 6HR MAX TEMP:  73;

WILLISTON      MOCLDY    64  54  69 CALM      29.67R
6HR MIN TEMP:  62; 6HR MAX TEMP:  69;

DICKINSON      MOCLDY    63  49  60 S9        29.70F
6HR MIN TEMP:  62; 6HR MAX TEMP:  68;

HETTINGER      MOCLDY    62  48  60 E3        29.77S
6HR MIN TEMP:  58; 6HR MAX TEMP:  70;

$$

 *****  OTHER OBSERVATIONS NORTHEAST NORTH DAKOTA  *****

CITY           SKY/WX    TMP DP  RH WIND       PRES   REMARKS
WALHALLA       FAIR      66  66 100 MISG      29.75S FOG
LANGDON        FAIR      66  64  94 S9        29.77S
CAVALIER       FOG       66  66 100 S7        29.75S VSB<1/4
GRAFTON        CLOUDY    66  66 100 SE10      29.78R
CANDO          FAIR      64  64 100 SE8       29.75S
FORT TOTTEN      N/A     66  63  89 S7        29.95
ROLLA          FAIR      59  59 100 CALM      29.75S
RUGBY          FAIR      63  63 100 SE7       29.72S
 ***** THE ABOVE OBSERVATIONS ARE NON NWS ARE NOT QUALITY
        CONTROLLED AND MAY MIS-REPORT RAIN FOR SNOW...
$$

 *****  OTHER OBSERVATIONS SOUTHEAST NORTH DAKOTA *****

CITY           SKY/WX    TMP DP  RH WIND       PRES   REMARKS
COOPERSTOWN    NOT AVBL
VALLEY CITY    CLOUDY    64  64 100 S14       29.81S FOG
OAKES            N/A     63  63 100 S9        29.84S
GWINNER          N/A     66  66 100 S12       29.85R
SHEYENNE NWR     N/A     58  58  99 SE3       29.95S
BUFFALO        NOT AVBL
WYNDMERE         N/A     61  61 100 SE5         N/A
 ***** THE ABOVE OBSERVATIONS ARE NON NWS ARE NOT QUALITY
       CONTROLLED AND MAY MIS-REPORT RAIN FOR SNOW...
$$

  *****  WEATHER ACROSS NORTHERN MINNESOTA  *****

CITY           SKY/WX    TMP DP  RH WIND       PRES   REMARKS
FLAG ISLAND    PTCLDY    66  64  94 S3        29.79S
WARROAD        PTCLDY    66  63  88 SW9       29.81R
ROSEAU         PTCLDY    66  61  82 S12       29.80R
HALLOCK        MOCLDY    66  64  94 S13       29.77R
THF RVR FALLS  PTCLDY   N/A N/A N/A S8        29.82S
HALSTAD        NOT AVBL
FOSSTON        CLEAR     61  61 100 S7        29.86S
BAUDETTE       PTCLDY    64  62  93 S12       29.81S
6HR MIN TEMP:  63; 6HR MAX TEMP:  66;

WASKISH        CLEAR     64  63  94 S3        29.86R
CROOKSTON      PTCLDY    64  63  94 S15       29.82S
$$
  *****  WEATHER ACROSS CENTRAL AND WEST MINNESOTA  *****

CITY           SKY/WX    TMP DP  RH WIND       PRES   REMARKS
BEMIDJI        MOCLDY    62  61  98 S7        29.89S FOG
PARK RAPIDS    CLOUDY    63  61  93 S9        29.91R
6HR MIN TEMP:  62; 6HR MAX TEMP:  67;

WADENA         PTCLDY    59  57  94 S5        29.92R FOG
DETROIT LAKES  CLEAR     63  63 100 S8        29.90R
MOORHEAD       CLEAR     64  63  94 S14       29.85S
FERGUS FALLS   CLEAR     63  63 100 S9        29.89S
ELBOW LAKE     FAIR      60  60  98 SE10G16   29.90R FOG
6HR MIN TEMP:  60; 6HR MAX TEMP:  64;

MORRIS MN        N/A     61  61 100 SE10      29.91S FOG
STAPLES        CLOUDY    61  59  94 S6        29.93R FOG
WHEATON        CLEAR     57  57 100 SE10      29.90S FOG
$$
  *****  WEATHER ELSEWHERE ACROSS MINNESOTA  *****

CITY           SKY/WX    TMP DP  RH WIND       PRES   REMARKS
DULUTH         CLOUDY    63  61  93 SW13      29.96R
6HR MIN TEMP:  62; 6HR MAX TEMP:  63;

INTRNTL FALLS  CLOUDY    63  62  97 SW5       29.85R
6HR MIN TEMP:  62; 6HR MAX TEMP:  65;

ELY            CLOUDY    61  59  94 SW8       29.92S
CLOQUET        CLOUDY    64  61  88 SW9       29.96S
BRAINERD       CLOUDY    61  60  97 S7        29.94R
6HR MIN TEMP:  61; 6HR MAX TEMP:  63;

HIBBING        CLOUDY    61  59  93 S6        29.94R
6HR MIN TEMP:  60; 6HR MAX TEMP:  61;

ALEXANDRIA     CLOUDY    62  61  96 S9        29.95R FOG
6HR MIN TEMP:  62; 6HR MAX TEMP:  65;

SAINT CLOUD    CLOUDY    59  59 100 S10       29.96S
6HR MIN TEMP:  57; 6HR MAX TEMP:  60;

MINNEAPOLIS    CLOUDY    63  60  90 S8        30.00R
6HR MIN TEMP:  63; 6HR MAX TEMP:  65;

$$

  *****  WEATHER ACROSS SOUTH DAKOTA  *****

CITY           SKY/WX    TMP DP  RH WIND       PRES   REMARKS
SIOUX FALLS    CLOUDY    62  60  93 S12       30.00R FOG
6HR MIN TEMP:  62; 6HR MAX TEMP:  63;

BROOKINGS      CLOUDY    61  57  88 S12       29.99R
WATERTOWN      CLEAR     62  60  93 S13       29.93R
6HR MIN TEMP:  62; 6HR MAX TEMP:  64;

HURON          CLEAR     63  62  97 S10       29.88S
6HR MIN TEMP:  63; 6HR MAX TEMP:  66;

SISSETON         N/A     65  62  90 S8        29.85S
ABERDEEN       CLEAR     64  62  93 S13       29.85S
6HR MIN TEMP:  64; 6HR MAX TEMP:  66;

MITCHELL       MOCLDY    63  62  97 S12       29.94R FOG
PIERRE         PTCLDY    67  55  65 S8        29.82S
6HR MIN TEMP:  66; 6HR MAX TEMP:  75;

MOBRIDGE       MOCLDY    66  63  90 SE12      29.77F
RAPID CITY     PTCLDY    62  46  55 SE7       29.84F
6HR MIN TEMP:  62; 6HR MAX TEMP:  72;

$$

  *****  SOME WEATHER IN NEARBY STATES *****

CITY           SKY/WX    TMP DP  RH WIND       PRES   REMARKS
GLASGOW MT     MOCLDY    68  47  46 W9        29.68R HAZE
6HR MIN TEMP:  67; 6HR MAX TEMP:  77; 6HR PCP: TRACE;

GREAT FALLS MT LGT RAIN  59  52  77 CALM      29.82S
6HR MIN TEMP:  59; 6HR MAX TEMP:  66; 6HR PCP: TRACE;

CHEYENNE WY    CLEAR     60  39  45 W14       30.12F
6HR MIN TEMP:  54; 6HR MAX TEMP:  66;

SCOTTSBLUFF NE CLEAR     60  45  57 SE6       29.98F
6HR MIN TEMP:  60; 6HR MAX TEMP:  76;

OMAHA NE       FOG       63  62  97 S6        30.03S VSB 1
6HR MIN TEMP:  61; 6HR MAX TEMP:  68;

DES MOINES IA  FOG       61  59  93 CALM      30.05R VSB 1/4
6HR MIN TEMP:  60; 6HR MAX TEMP:  66;

DAVENPORT IA   FOG       61  60  97 E3        30.06R VSB<1/4
6HR MIN TEMP:  57; 6HR MAX TEMP:  62;

CHICAGO IL     CLOUDY    65  64  97 CALM      30.06R FOG
6HR MIN TEMP:  64; 6HR MAX TEMP:  65;

EAU CLAIRE WI  CLEAR     57  55  93 CALM      30.04R
6HR MIN TEMP:  54; 6HR MAX TEMP:  61;

LA CROSSE WI   FOG       59  59 100 E6        30.05R VSB<1/4
6HR MIN TEMP:  58; 6HR MAX TEMP:  61;

$$

  *****  SOME NATIONAL WEATHER *****

CITY           SKY/WX    TMP DP  RH WIND       PRES   REMARKS
LA GUARDIA NY  MOSUNNY   74  63  68 SW7       30.10R



USA.gov is the U.S. government's official web portal to all federal, state and local government web resources and services.